Home > Weather > Seevetal > Past weeks

Flag for Germany Past Weather in Seevetal, Lower Saxony, Germany — Yesterday and Last 2 Weeks

Now
64 °F

Passing clouds.


Feels Like: 64 °F
Forecast: 56 / 67 °F
Wind: 7 mph from Northwest

Location: Hamburg-Fuhlsbuettel

Current Time: Jun 25, 2016 at 3:41:43 AM

Latest Report: Jun 25, 2016 at 3:20 AM


Visibility: 4 mi

Pressure: 30.01 "Hg

Humidity: 100%

Dew Point: 64 °F

Location of SeevetalLocation

Past Weather in Seevetal — Graph

°F

Seevetal Temperature Yesterday

Maximum temperature yesterday: 81 °F (at 4:50 PM)
Minimum temperature yesterday: 66 °F (at 2:50 AM)
Average temperature yesterday: 71 °F

High & Low Weather Summary for the Past Weeks

 TemperatureHumidityPressure
High90 °F (Jun 23, 5:50 PM)100% (Jun 11, 3:50 AM)30.21 "Hg (Jun 11, 3:50 AM)
Low45 °F (Jun 11, 4:20 AM)35% (Jun 11, 4:20 PM)29.45 "Hg (Jun 14, 12:20 PM)
Average62 °F79%29.85 "Hg
* Reported Jun 10 1:20 AM — Jun 25 1:50 AM, Seevetal, Weather by CustomWeather, © 2016

Note: Actual official high and low records may vary slightly from our data, if they occured in-between our weather recording intervals... More about our weather records

Advertising

Seevetal Weather History for the Previous 24 Hours

Scroll right to see more
 ConditionsComfort  
Time TempWeatherWind HumidityBarometerVisibility
1:50 AM
Sat, Jun 25
64 °FPassing clouds.5 mph100%30.04 "Hg4 mi
1:20 AM64 °FPartly cloudy.7 mph100%30.04 "Hg4 mi
12:50 AM66 °FFog.8 mph94%30.04 "Hg3 mi
12:20 AM64 °FSprinkles. Passing clouds.6 mph100%30.04 "Hg3 mi
11:50 PM
Fri, Jun 24
66 °FPartly cloudy.10 mph94%30.04 "Hg4 mi
11:20 PM66 °FPassing clouds.9 mph94%30.01 "Hg4 mi
10:50 PM66 °FFog.10 mph94%30.01 "Hg3 mi
10:20 PM66 °FFog.15 mph100%30.01 "Hg3 mi
9:50 PM70 °FFog.7 mph94%30.01 "Hg2 mi
9:20 PM70 °FFog.3 mph94%30.04 "Hg3 mi
8:50 PM70 °FScattered showers. Partly sunny.8 mph94%30.01 "Hg4 mi
8:20 PM70 °FSprinkles. Broken clouds.10 mph94%30.04 "Hg3 mi
7:50 PM70 °FThunderstorms. Partly sunny.17 mph94%30.04 "Hg1 mi
7:20 PM75 °FThundershowers. Broken clouds.9 mph78%30.01 "HgN/A
6:50 PM77 °FThundershowers. Broken clouds.7 mph74%30.01 "HgN/A
6:20 PM77 °FPartly sunny.5 mph74%30.01 "HgN/A
5:50 PM79 °FPartly sunny.3 mph70%30.01 "HgN/A
5:20 PM79 °FPartly sunny.6 mph70%30.01 "HgN/A
4:50 PM81 °FScattered clouds.6 mph66%30.01 "HgN/A
4:20 PM79 °FScattered clouds.8 mph65%30.01 "HgN/A
3:50 PM79 °FScattered clouds.6 mph70%30.01 "HgN/A
3:20 PM77 °FScattered clouds.7 mph69%30.04 "HgN/A
2:50 PM77 °FScattered clouds.3 mph74%30.04 "HgN/A
2:20 PM75 °FScattered clouds.5 mph74%30.04 "HgN/A
1:50 PM75 °FScattered clouds.6 mph78%30.04 "HgN/A
1:20 PM73 °FScattered clouds.6 mph83%30.04 "HgN/A
12:50 PM73 °FScattered clouds.7 mph83%30.04 "HgN/A
12:20 PM72 °FScattered clouds.6 mph83%30.04 "HgN/A
11:50 AM72 °FScattered clouds.5 mph88%30.04 "HgN/A
11:20 AM68 °FSprinkles. Broken clouds.3 mph94%30.04 "HgN/A
10:50 AM68 °FSprinkles. Broken clouds.8 mph88%30.07 "HgN/A
10:20 AM70 °FSprinkles. Broken clouds.7 mph88%30.04 "HgN/A
9:50 AM68 °FSprinkles. Broken clouds.12 mph88%30.07 "HgN/A
9:20 AM68 °FSprinkles. Broken clouds.3 mph94%30.04 "HgN/A
8:50 AM68 °FSprinkles. Broken clouds.8 mph88%30.01 "HgN/A
8:20 AM68 °FSprinkles. Broken clouds.7 mph88%29.98 "HgN/A
7:50 AM68 °FThundershowers. Broken clouds.10 mph88%30.01 "HgN/A
7:20 AM68 °FSprinkles. Broken clouds.8 mph88%29.98 "HgN/A
6:50 AM68 °FPartly sunny.12 mph94%29.98 "HgN/A
6:20 AM68 °FPartly sunny.8 mph94%30.01 "HgN/A
5:50 AM68 °FPartly sunny.6 mph94%30.01 "HgN/A
5:20 AM66 °FPassing clouds.6 mph100%29.98 "HgN/A
4:50 AM66 °FPartly cloudy.2 mph94%29.98 "HgN/A
4:20 AM68 °FClear.5 mph94%29.95 "Hg10 mi
3:50 AM68 °FPartly cloudy.7 mph94%29.95 "HgN/A
3:20 AM68 °FThunderstorms. Passing clouds.7 mph94%30.07 "HgN/A
Weather by CustomWeather, © 2016

See weather overviewHow to use our weather pages